Temp
29 29 30 32 32 32 34 34 32 30 25 26 27 25 24 22 23 29 29 31 31 31 30 29 28 28 27 26 25 24 24 23 23 24 25 25 25 25 25 25 24 23 23 23
28 29 32 33 32 32 33 33 32 29 28 26 25 27 27 23 23 30 30 30 31 31 30 29 28 28 28 26 25 24 24 23 23 23 25 25 25 25 25 25 24 24 24 23
30 32 31 30 31 32 33 33 32 31 29 30 28 26 26 23 24 30 31 31 31 31 31 30 29 28 28 27 26 25 24 23 23 24 23 24 23 24 24 24 24 24 24 24
31 31 30 30 31 33 33 32 32 31 31 29 31 26 27 24 25 28 31 31 32 32 32 32 30 29 28 28 26 25 24 24 23 23 25 24 24 25 26 25 25 24 24 24
30 30 30 30 31 32 33 32 33 32 33 31 30 28 26 26 25 25 29 31 32 33 33 32 31 30 29 28 27 26 24 24 24 24 23 24 25 25 26 25 24 24 23 23
30 32 31 32 32 32 32 32 32 32 33 32 33 33 28 28 28 28 27 28 32 33 33 32 32 30 29 28 28 27 25 24 24 23 23 23 25 25 24 24 23 24 24 24
29 30 31 32 31 32 32 32 31 31 31 33 33 32 33 33 31 30 29 28 31 32 33 33 32 29 30 29 28 27 25 24 24 24 24 24 24 24 24 24 25 24 24 24
29 28 30 31 32 31 31 32 31 29 32 34 31 31 32 32 33 32 30 28 31 32 33 33 32 30 27 29 28 27 25 24 24 24 24 24 23 24 24 25 25 26 24 24
29 29 32 32 32 32 31 31 34 32 35 34 34 33 29 30 31 31 31 29 27 31 32 32 31 31 29 28 28 27 26 25 24 25 24 24 24 23 24 24 24 25 25 25
30 29 31 31 32 32 33 33 31 33 32 31 33 33 33 29 31 31 31 30 27 29 30 31 31 30 29 25 26 25 26 25 25 25 24 25 24 24 23 24 24 24 24 24
30 30 30 31 30 31 31 31 33 34 34 33 33 33 33 30 30 31 31 30 29 28 30 30 30 28 27 26 24 25 25 25 25 25 24 24 24 24 24 24 24 24 23 23
30 31 30 30 32 33 33 32 33 32 31 33 33 31 29 30 29 31 31 30 30 30 30 29 28 27 25 24 22 23 24 25 25 25 25 24 24 24 24 24 24 24 23 23
29 29 29 29 31 31 31 33 34 34 34 33 33 33 28 28 29 28 26 26 26 27 27 25 23 23 23 23 22 22 22 23 25 24 24 24 24 24 24 24 24 24 24 24
25 29 29 29 31 32 31 31 32 34 33 33 34 32 28 28 27 24 23 24 24 26 25 22 21 21 21 21 20 20 21 22 23 23 24 23 23 24 24 24 24 24 24 24
28 27 29 29 30 31 31 32 32 32 33 33 34 34 33 30 29 25 24 23 23 23 23 23 22 21 20 19 19 19 19 19 20 21 22 22 22 22 23 23 23 23 23 24
27 26 28 28 29 30 30 30 32 31 32 33 33 31 31 30 27 26 23 21 21 23 22 20 22 22 21 20 19 18 19 19 19 19 20 20 21 20 21 21 22 22 22 23
25 26 27 27 28 29 28 27 29 29 29 31 32 30 29 27 25 22 20 20 20 19 19 17 16 16 16 17 18 17 18 19 19 19 19 19 19 19 20 21 21 21 22 22
25 25 26 27 27 26 26 27 27 28 27 28 29 29 28 25 21 21 21 20 19 18 18 17 16 15 14 15 16 16 16 17 17 18 18 19 18 19 19 19 20 20 21 21
26 25 23 25 25 24 26 25 25 26 28 27 28 27 23 23 22 20 20 21 20 19 16 15 13 13 13 13 13 14 14 15 16 16 17 18 17 18 18 17 18 19 20 20
26 26 26 24 24 23 24 25 25 25 27 26 26 25 24 23 24 20 20 19 18 16 15 14 14 13 13 13 13 13 13 14 15 16 17 18 18 18 18 17 17 17 18 18
25 25 25 26 25 25 24 24 25 24 23 24 25 25 24 23 25 22 18 17 16 16 15 14 15 14 13 13 14 13 12 12 13 15 15 16 16 17 17 16 17 17 17 17
23 24 25 24 24 23 22 25 24 22 24 24 25 25 24 20 21 20 19 20 18 15 14 15 15 15 14 14 14 14 14 13 13 13 14 14 16 17 16 16 16 16 16 17
22 23 23 23 23 21 22 23 23 23 23 23 23 24 24 22 21 21 20 20 18 18 18 17 16 16 16 15 16 15 13 14 14 14 14 14 14 15 15 15 15 16 16 17
22 21 22 22 22 22 22 22 23 23 22 22 23 23 22 22 21 20 20 19 19 18 18 17 17 16 15 14 14 13 13 13 14 14 14 14 14 14 15 16 16 17 17 17
23 21 22 23 22 22 22 22 22 22 22 22 22 22 22 21 20 19 19 18 17 17 16 17 17 16 15 14 13 13 12 13 13 13 14 14 14 14 13 12 12 13 8 12
23 23 22 22 22 22 21 21 21 22 22 21 21 21 20 20 19 18 17 16 15 16 16 16 15 15 14 13 13 12 12 12 13 14 14 15 15 15 15 13 10 9 8 9
Height
775 780 778 766 761 763 757 760 769 782 796 805 806 817 818 823 823 809 810 811 813 817 823 830 834 838 843 847 852 856 858 861 862 865 866 869 870 874 876 878 881 882 884 885
781 782 762 756 764 769 763 764 772 786 790 800 810 804 802 819 818 803 807 809 811 813 820 827 833 837 840 846 851 855 858 861 863 865 866 868 870 873 875 877 880 881 883 885
769 762 759 769 771 772 761 762 770 777 787 782 796 814 810 819 817 800 801 804 809 812 815 824 830 834 839 844 850 854 857 860 863 865 867 869 872 873 875 877 879 881 883 884
763 761 769 772 769 763 770 762 765 776 782 802 779 831 807 817 815 806 800 801 802 806 811 818 826 831 836 841 847 853 857 860 863 865 866 869 872 873 873 875 877 880 882 884
768 768 771 773 767 763 766 762 765 769 772 782 790 809 812 809 820 818 803 799 797 800 805 812 819 825 832 839 844 850 855 859 861 865 867 869 870 871 872 874 877 879 881 883
760 753 759 759 757 764 764 767 769 773 770 793 771 775 805 803 793 796 803 802 795 796 801 808 815 822 831 837 842 848 853 857 861 864 868 869 870 871 873 874 876 878 880 882
769 768 757 753 769 764 767 773 796 801 798 786 768 782 768 768 774 779 787 795 794 795 798 805 811 822 826 833 840 845 851 856 859 863 866 869 871 873 873 874 875 877 878 880
777 789 764 758 761 771 773 769 785 811 790 774 775 788 775 761 758 768 779 790 790 792 796 801 809 819 826 831 838 843 848 854 858 861 864 867 871 872 873 873 873 873 876 878
770 772 750 753 755 755 770 776 755 773 753 767 762 765 776 768 768 767 773 786 798 791 795 801 808 814 822 830 835 841 846 851 855 859 863 865 868 871 873 873 873 873 875 876
759 776 756 753 752 753 754 754 779 768 787 796 768 770 762 777 768 767 771 779 794 797 797 800 806 812 820 829 834 839 843 848 853 857 862 864 866 868 871 871 872 871 872 875
754 760 761 751 763 761 769 768 761 753 759 772 775 767 748 767 766 764 767 776 785 794 796 800 805 813 820 827 833 837 841 846 849 854 858 862 864 865 867 868 869 869 870 872
756 754 764 763 743 739 745 755 758 773 779 764 761 770 759 759 766 763 767 774 778 784 790 799 807 814 822 828 832 834 840 844 847 850 855 858 862 863 864 866 867 866 867 869
757 761 772 768 760 752 753 745 742 746 746 764 773 761 761 765 768 772 781 785 786 788 794 804 812 819 825 830 834 833 838 843 845 847 852 856 858 860 861 864 866 867 867 868
768 757 760 767 751 743 758 753 750 745 761 756 754 758 770 769 776 785 789 790 793 791 798 808 813 817 825 831 835 837 840 842 843 846 850 853 855 857 859 860 863 865 866 868
763 772 760 755 751 747 747 751 750 755 748 755 744 749 750 761 767 783 786 791 793 797 802 807 811 810 825 830 830 837 842 844 845 848 851 852 854 855 856 858 860 862 864 865
763 777 765 769 761 752 758 755 749 752 751 749 748 757 752 758 769 779 789 796 799 800 807 811 812 815 825 828 831 836 838 840 844 848 849 852 854 855 856 857 858 860 862 864
778 775 773 773 767 766 775 774 763 763 760 755 762 760 760 772 781 791 797 800 804 806 810 815 819 823 825 828 831 836 837 839 844 847 850 852 854 854 855 856 859 859 860 862
780 780 778 776 774 792 779 768 771 769 769 763 762 764 766 778 792 796 799 802 808 813 817 818 822 825 827 829 833 836 840 840 843 846 850 853 853 853 853 855 857 859 860 862
772 780 796 789 793 798 778 779 781 781 772 770 768 772 785 789 795 805 804 805 809 814 819 823 826 829 832 833 836 837 840 841 843 846 849 853 854 853 854 856 858 859 860 861
775 775 778 792 793 805 792 784 780 779 780 774 775 779 787 790 794 803 805 809 814 820 824 826 830 833 835 837 839 840 843 845 846 850 850 854 856 855 856 858 860 859 860 860
784 783 786 781 783 787 791 787 779 796 804 784 778 780 785 792 783 791 809 815 819 824 828 831 834 836 838 840 844 846 848 850 852 853 853 855 858 858 860 861 860 861 862 862
790 792 786 790 792 799 792 784 791 797 789 786 783 781 787 799 800 803 809 813 820 827 833 837 839 842 844 846 848 851 853 855 854 855 857 857 858 861 861 861 863 863 862 864
801 789 790 793 793 797 794 794 794 793 792 790 788 785 787 798 804 807 812 817 823 827 833 837 842 845 847 848 850 853 856 856 857 859 861 860 861 862 864 863 864 864 866 867
794 794 792 795 796 796 797 797 796 795 795 793 790 789 794 800 806 812 816 820 826 831 836 840 843 846 849 850 851 853 854 857 858 860 861 862 863 863 864 863 864 865 866 867
790 796 793 792 793 795 797 799 800 799 798 797 797 796 798 803 808 815 820 824 829 834 839 841 844 846 849 853 852 856 857 858 858 860 861 862 863 864 865 866 867 870 868 868
788 789 795 792 790 793 798 801 802 801 801 801 801 802 804 807 812 817 822 827 832 835 840 842 845 847 850 853 855 857 859 860 861 861 862 862 863 864 864 865 868 867 869 868
Wind_Speed
12 11 17 18 14 8 7 7 10 12 12 14 10 10 16 17 14 20 19 18 17 16 17 17 15 16 16 15 15 14 13 14 14 12 11 9 10 8 8 9 7 7 7 6
9 15 15 12 8 8 9 10 13 12 16 8 11 9 16 17 18 22 21 19 17 17 17 17 16 16 17 16 15 16 14 13 12 10 9 8 8 9 8 8 7 8 7 7
13 9 9 12 12 10 7 9 13 13 13 9 12 6 10 15 19 21 21 20 19 16 16 16 17 18 17 17 16 16 16 14 12 10 10 9 9 7 8 8 8 8 8 7
11 6 14 15 15 12 11 1 6 13 15 6 16 3 8 18 18 16 21 20 20 19 17 18 21 20 19 18 16 15 15 14 14 11 12 10 8 7 6 8 8 9 9 8
8 11 18 17 14 10 5 6 8 12 4 10 10 3 7 20 17 16 17 22 21 21 19 17 22 22 20 18 18 17 15 14 13 13 9 8 7 7 5 8 8 9 8 9
1 12 13 13 10 10 2 9 6 4 3 7 11 9 12 17 26 26 22 19 21 20 20 19 20 19 19 19 18 17 16 15 14 12 11 8 7 5 4 7 7 7 9 9
8 13 9 9 14 12 13 14 7 8 7 4 4 8 4 19 14 23 26 25 22 21 20 19 17 18 21 21 19 18 16 16 15 12 11 10 8 6 8 8 8 9 9 9
13 14 16 11 14 13 18 18 8 10 10 9 6 6 3 6 12 14 20 19 21 21 19 19 19 21 17 21 20 18 17 16 14 12 11 11 8 6 7 10 4 10 11 9
12 11 18 11 14 10 16 19 17 15 6 10 10 6 6 7 11 14 20 24 18 19 18 17 21 21 20 23 22 20 17 16 15 14 11 10 10 9 8 6 7 7 7 10
3 10 12 16 15 16 14 14 13 9 10 12 8 10 6 10 11 16 19 24 19 14 17 17 19 18 19 21 19 18 17 15 14 14 12 11 10 9 9 8 7 6 8 10
9 9 12 14 15 17 11 13 14 14 14 8 10 8 7 9 8 16 19 20 22 25 20 15 18 20 19 20 19 18 15 15 15 14 15 13 11 10 9 8 6 7 9 10
10 8 8 18 13 13 21 17 17 11 12 12 9 5 5 5 9 9 13 13 17 17 18 17 18 20 20 20 20 21 14 11 12 12 16 15 12 11 11 10 7 6 7 10
5 9 9 8 9 9 14 16 18 20 17 16 11 3 6 7 8 10 10 11 10 11 14 14 18 15 13 11 11 15 15 10 9 11 13 13 15 13 12 12 12 10 9 9
3 4 11 4 14 16 17 12 16 13 13 14 12 6 8 10 10 9 10 12 13 15 17 15 14 14 13 13 11 10 12 11 9 9 12 12 13 13 13 13 13 13 12 12
3 2 5 5 6 4 8 15 15 15 18 12 8 12 9 10 11 12 10 9 12 12 14 14 13 19 19 18 19 17 11 10 7 6 6 7 9 11 12 12 13 12 11 11
5 2 3 6 4 5 9 5 6 5 6 7 8 6 5 9 9 10 10 10 9 13 10 9 9 16 18 17 17 20 17 12 9 10 9 7 10 9 9 10 10 10 9 9
2 5 5 8 1 7 10 6 4 3 1 6 10 8 9 10 9 10 10 10 9 9 11 11 10 12 12 12 16 14 17 18 14 10 8 8 6 8 10 10 9 7 7 7
6 3 6 3 4 11 8 4 4 5 4 3 3 3 6 10 11 10 9 10 10 10 9 10 12 13 11 14 15 14 12 14 13 11 10 7 7 8 5 8 8 7 6 6
0 3 3 5 9 6 4 8 7 7 5 5 1 7 11 13 14 8 9 9 12 12 13 14 14 14 14 12 12 14 13 15 19 17 13 10 10 11 7 6 5 5 5 6
3 1 5 8 4 7 6 5 6 7 4 9 3 6 9 13 9 6 12 13 13 15 15 18 17 16 19 17 17 18 15 16 15 10 13 10 8 9 9 7 6 8 7 12
3 3 6 4 5 7 5 5 2 6 4 10 4 4 7 9 6 20 15 14 17 17 17 14 13 14 14 14 14 17 14 12 10 9 12 11 8 9 8 8 9 10 11 11
3 3 3 2 4 4 9 1 5 6 6 9 2 1 5 7 11 17 17 17 22 21 17 14 14 13 11 11 11 11 10 8 8 8 8 10 9 7 8 9 8 8 10 10
3 4 4 4 5 5 6 8 6 7 7 6 6 2 5 8 12 15 14 14 17 18 16 14 13 11 8 8 8 9 7 7 7 7 7 7 8 8 7 8 8 9 8 7
3 1 2 3 6 5 4 4 7 9 9 7 2 4 7 11 14 14 13 14 16 16 14 12 12 10 8 7 8 7 7 6 6 6 6 6 6 7 6 5 4 4 4 4
3 5 3 4 3 3 5 5 5 7 8 8 5 5 8 12 14 14 13 15 16 14 13 11 9 9 8 6 7 5 5 6 6 6 5 5 6 6 8 8 6 5 7 4
6 5 5 2 6 3 6 3 3 4 6 6 5 5 7 12 13 16 16 16 15 15 11 10 8 8 8 7 7 6 5 5 6 6 6 5 5 6 7 8 9 8 7 5
Wind_Direction
191 208 206 193 213 359 298 231 153 139 153 150 131 138 173 180 208 185 180 169 175 176 172 169 176 173 168 170 178 178 171 169 168 169 165 161 163 158 161 166 168 163 154 152
175 219 204 201 199 240 223 216 115 125 151 157 175 175 169 171 192 197 186 180 187 182 170 171 180 182 183 177 182 189 184 182 178 175 169 171 165 166 164 163 167 177 174 172
208 191 176 206 199 207 216 207 159 153 167 182 176 137 163 175 199 200 190 193 195 187 175 180 188 187 191 185 185 191 194 189 191 186 168 160 165 166 180 182 183 187 185 184
235 131 183 207 206 216 174 233 151 148 178 180 203 122 187 172 183 193 190 193 194 188 186 182 191 194 193 191 190 187 190 194 191 191 183 168 176 182 195 188 188 189 193 192
186 187 192 200 209 208 75 171 173 178 222 147 183 149 159 166 187 190 206 196 195 192 184 190 190 191 192 190 189 185 186 190 187 195 191 190 196 181 183 190 174 183 187 193
359 210 199 193 180 204 191 169 168 172 254 230 171 256 163 182 198 195 190 202 202 199 188 192 199 179 193 188 189 184 184 188 188 190 191 198 187 181 182 174 175 183 181 188
179 191 189 213 198 197 208 180 176 199 202 250 136 212 67 194 178 192 189 192 203 197 192 191 189 182 193 189 188 184 186 191 190 196 197 202 207 209 211 198 186 189 187 191
198 181 197 196 216 188 211 211 213 206 210 211 130 220 149 183 194 190 198 182 203 194 194 193 187 197 177 190 187 186 186 192 195 200 204 205 207 203 206 214 203 200 186 191
205 223 180 202 215 216 193 225 237 274 254 258 162 179 150 186 206 199 181 170 205 204 194 193 201 193 187 191 186 185 184 191 199 203 205 206 210 205 215 220 202 211 194 190
182 221 194 200 214 214 236 198 211 241 217 231 163 224 107 181 176 177 174 180 176 202 208 195 198 193 180 189 185 184 182 186 196 207 212 212 214 215 211 213 211 215 204 203
242 260 164 187 204 196 195 224 221 245 238 257 229 195 72 137 182 173 176 179 180 196 199 193 192 180 185 172 170 176 176 181 196 209 207 216 214 210 211 230 212 193 187 186
221 244 194 199 199 242 203 214 203 228 191 256 309 82 108 141 152 182 160 178 184 185 191 177 169 171 174 178 171 167 173 177 191 199 208 212 215 215 214 219 210 196 172 197
195 235 209 169 187 206 229 213 231 216 244 220 237 186 129 139 146 141 152 157 153 162 143 146 152 150 156 174 182 165 183 192 197 193 211 214 218 219 218 216 218 209 198 187
233 273 272 259 193 187 203 207 223 240 228 235 210 148 165 161 156 139 154 163 159 166 158 149 137 127 143 166 162 144 150 152 154 174 205 210 219 219 219 213 216 223 217 214
317 258 247 77 81 159 201 201 200 225 242 264 233 214 150 172 158 167 156 166 160 163 169 170 171 162 185 169 162 173 180 182 174 167 192 194 208 209 207 203 203 208 217 219
8 130 226 116 109 142 133 161 199 224 246 259 268 106 121 130 137 151 149 157 159 162 143 118 148 159 175 166 163 170 185 191 199 201 198 194 204 201 194 192 191 192 203 213
148 333 249 138 142 177 145 41 56 146 172 320 225 56 149 135 152 121 125 124 132 124 112 102 100 98 101 121 146 149 163 175 187 170 184 196 200 200 215 187 192 188 196 206
243 174 304 198 272 208 57 38 3 11 37 344 338 22 157 116 107 115 125 128 121 118 120 112 113 108 105 124 140 147 152 151 149 158 167 180 166 165 177 188 189 181 186 190
71 168 268 273 191 293 162 44 24 359 75 9 54 119 123 129 116 107 129 130 126 117 108 107 105 105 103 103 106 115 114 128 128 131 131 137 145 150 162 151 141 145 153 153
93 303 256 221 226 222 32 7 340 318 163 22 70 158 164 172 192 151 135 127 117 115 117 115 112 107 105 101 110 108 98 105 105 129 126 132 148 138 140 142 154 136 127 119
215 250 257 179 245 104 37 315 326 245 39 348 356 180 179 212 5 132 133 125 123 123 119 115 111 108 110 109 110 104 105 101 103 115 117 116 124 125 134 131 121 127 132 123
280 274 234 259 257 192 1 183 328 358 331 349 13 75 188 80 129 137 144 142 133 128 124 121 117 115 113 114 118 121 113 120 109 99 106 116 117 126 122 118 117 119 124 123
235 342 349 331 43 79 50 56 32 3 343 353 327 157 163 143 141 142 142 135 138 139 141 141 133 124 124 119 128 130 126 118 121 128 131 117 117 119 126 125 127 129 134 146
173 206 270 221 133 116 80 76 34 23 16 5 306 146 145 155 155 152 150 144 144 142 143 143 140 134 114 110 109 113 112 115 119 121 121 123 127 120 116 109 103 109 127 138
36 164 218 243 170 158 135 83 41 34 28 42 58 134 154 159 160 159 157 153 149 148 149 146 138 132 126 128 113 125 133 139 136 134 130 131 127 127 115 99 88 111 75 109
185 212 213 321 83 303 87 79 33 29 35 46 73 120 156 166 167 167 158 155 149 149 152 145 139 136 139 147 144 144 149 157 157 153 153 145 144 145 141 127 99 98 79 78